This is the latest recevied weather packets stored in our database for station/object KE0LFX. If no packets are shown the sender has not sent any weather packets the latest 10 day(s).
| Time | Temp. | Humidity | Pressure | Rain* | Wind** | Luminosity | Snow |
|---|---|---|---|---|---|---|---|
| 1778086848 | 10.56° C | 45% | 1021.3 hPa | 0 mm | - | 271 W/m² | - |
| 1778086546 | 10.56° C | 44% | 1021.2 hPa | 0 mm | - | 276 W/m² | - |
| 1778086236 | 10.56° C | 44% | 1021.4 hPa | 0 mm | - | 258 W/m² | - |
| 1778085933 | 10.56° C | 44% | 1021.3 hPa | 0 mm | - | 280 W/m² | - |
| 1778085631 | 10° C | 45% | 1021.1 hPa | 0 mm | - | 299 W/m² | - |
| 1778085326 | 10° C | 45% | 1021.1 hPa | 0 mm | - | 176 W/m² | - |
| 1778085021 | 10° C | 45% | 1021.3 hPa | 0 mm | - | 166 W/m² | - |
| 1778084718 | 10° C | 44% | 1021.1 hPa | 0 mm | - | 163 W/m² | - |
| 1778084410 | 10.56° C | 46% | 1021.1 hPa | 0 mm | - | 175 W/m² | - |
| 1778084108 | 10° C | 44% | 1021.1 hPa | 0 mm | - | 167 W/m² | - |
| 1778083804 | 10° C | 46% | 1021.1 hPa | 0 mm | - | 169 W/m² | - |
| 1778083502 | 10° C | 45% | 1021.1 hPa | 0 mm | - | 168 W/m² | - |
| 1778083199 | 10° C | 47% | 1021 hPa | 0 mm | - | 163 W/m² | - |
| 1778082896 | 10° C | 47% | 1021.4 hPa | 0 mm | - | 90 W/m² | - |
| 1778081783 | 10° C | 49% | 1021 hPa | 0 mm | - | 86 W/m² | - |
| 1778081480 | 8.89° C | 49% | 1021.3 hPa | 0 mm | - | 85 W/m² | - |
| 1778081177 | 8.89° C | 49% | 1021.1 hPa | 0 mm | - | 69 W/m² | - |
| 1778080875 | 8.89° C | 49% | 1021.3 hPa | 0 mm | - | 78 W/m² | - |
| 1778080573 | 8.89° C | 50% | 1021.2 hPa | 0 mm | - | 69 W/m² | - |
| 1778080270 | 8.89° C | 51% | 1021 hPa | 0 mm | - | 55 W/m² | - |
| 1778079967 | 8.33° C | 50% | 1021.1 hPa | 0 mm | - | 53 W/m² | - |
| 1778079663 | 8.33° C | 51% | 1021.1 hPa | 0 mm | - | 48 W/m² | - |
| 1778079360 | 7.78° C | 52% | 1021.1 hPa | 0 mm | - | 65 W/m² | - |
| 1778079058 | 8.33° C | 50% | 1021 hPa | 0 mm | - | 51 W/m² | - |
| 1778078754 | 7.78° C | 51% | 1021.2 hPa | 0 mm | - | 48 W/m² | - |
* Rain latest hour (hover to see other rain measurements)
** Current wind speed in m/s (hover to see current wind gust speed)